Lapse_Rate
8.3 8.2 8.2 8.1 8.4 8.8 8.8 8.7 8.2 8.1 8.1 7.9 7.7 7.8 7.9 7.8 7.6 7.5 7.3 7.4 7.4 7.3 7.4 7.5 7.2 6.9 6.6 6.7 6.5 5.9 5.7 5.6 5.2 5.3 5.6 5.7 5.5 5.2 5.6 5.6 5.4 5.5 5.7
7.8 7.9 8.0 7.9 8.0 8.3 8.8 8.9 8.5 8.4 8.2 7.9 7.9 7.9 8.0 7.9 7.8 7.4 7.2 7.4 7.5 7.4 7.4 7.6 7.6 7.2 6.8 6.5 6.7 6.6 5.9 5.7 5.5 5.4 5.3 5.5 5.7 5.8 5.9 5.4 5.2 5.3 5.6
7.2 7.7 7.9 8.0 8.1 8.1 8.5 8.8 8.8 8.3 8.3 8.2 7.9 7.9 8.0 8.2 7.7 7.4 7.2 7.7 7.7 7.6 7.5 7.6 7.8 7.5 7.1 6.7 6.7 6.7 6.5 6.0 5.7 5.8 5.4 5.5 5.7 5.9 5.7 5.6 5.2 5.2 5.4
7.1 7.5 7.8 8.0 8.3 8.3 8.4 8.6 9.0 8.7 8.4 8.2 8.0 7.9 8.2 8.3 8.0 7.7 7.6 7.5 7.6 7.6 7.5 7.5 7.7 7.8 7.5 7.2 6.7 6.8 6.7 6.3 5.9 5.7 6.0 5.7 5.8 5.6 5.8 5.7 5.5 5.3 5.2
7.1 7.4 7.7 8.1 8.5 8.0 7.9 8.1 8.4 8.5 8.5 8.3 8.0 8.1 8.3 8.4 8.1 7.8 7.4 7.5 7.6 7.6 7.6 7.7 7.8 7.9 7.7 7.5 7.0 6.9 6.9 6.7 6.0 5.8 5.9 5.9 5.9 5.7 5.7 5.9 5.8 5.3 5.1
7.3 7.6 7.9 7.9 7.7 7.2 7.5 7.0 7.4 8.5 8.6 8.5 8.4 8.4 8.6 8.3 8.1 7.7 7.5 7.5 7.5 7.6 7.6 7.6 7.9 8.0 7.8 7.4 7.1 6.9 6.9 6.8 6.3 6.0 5.8 6.0 5.9 5.7 5.7 5.8 5.8 5.5 5.4
7.6 8.0 7.8 7.7 7.7 7.3 7.0 7.7 7.7 8.2 8.5 8.6 8.6 8.6 8.3 8.1 7.9 7.6 7.2 7.2 7.4 7.5 7.7 7.6 7.7 8.1 7.9 7.6 7.3 7.0 7.1 7.1 6.8 6.4 5.8 5.7 6.0 5.8 6.0 6.0 5.7 5.6 5.4
7.7 7.6 8.1 7.8 7.9 7.5 7.5 7.7 7.5 8.0 8.1 8.3 8.4 8.3 8.2 7.7 7.5 7.0 7.1 7.4 7.4 7.5 7.6 7.6 7.7 8.0 7.8 7.7 7.4 7.3 7.3 7.2 6.9 6.5 6.3 5.7 6.3 5.9 5.7 5.5 5.6 5.4 4.9
7.8 7.7 8.3 8.2 8.3 7.7 7.8 7.4 7.6 7.9 7.9 6.7 7.2 7.6 7.8 7.5 7.5 7.6 7.2 7.3 7.4 7.5 7.6 7.7 7.8 8.0 7.8 7.7 7.4 7.4 7.3 7.3 7.0 6.6 6.4 5.9 5.7 5.7 5.7 5.5 5.5 5.5 5.2
7.7 7.5 7.8 7.7 8.2 8.0 7.7 7.2 7.4 7.4 7.8 7.0 6.9 7.3 7.9 7.7 7.7 7.7 7.4 7.3 7.2 7.2 7.5 7.6 7.9 8.0 7.6 7.4 7.3 7.3 7.3 7.4 7.3 6.8 6.2 5.7 5.6 5.6 6.0 5.6 5.5 5.7 5.5
7.3 6.9 6.9 7.4 7.5 7.8 7.8 7.7 7.4 7.5 7.5 7.3 7.3 7.3 7.5 7.7 7.6 7.5 7.4 7.3 7.1 7.1 7.4 7.4 7.6 7.5 7.4 7.1 7.2 7.2 7.2 7.3 7.2 7.0 6.1 5.9 5.7 5.6 5.6 5.6 5.5 5.4 5.2
6.6 5.5 6.3 6.7 7.0 7.4 7.5 7.7 7.8 7.7 7.7 7.5 7.4 7.7 7.5 7.5 7.2 7.1 7.0 7.3 7.0 7.2 6.9 7.0 7.2 7.2 7.1 7.1 7.1 7.2 7.2 7.2 7.1 7.1 6.3 5.7 5.5 5.6 5.8 5.5 5.6 5.4 5.2
5.9 5.7 6.1 6.4 6.4 6.4 6.7 7.2 7.7 7.8 8.0 8.0 7.8 7.6 7.4 7.3 7.0 6.9 6.8 7.1 6.9 6.8 6.2 6.4 6.7 6.9 7.0 6.8 6.9 7.2 7.1 7.1 7.0 6.7 5.9 5.6 5.8 5.3 5.9 5.8 5.9 5.7 5.5
6.0 5.4 5.7 6.1 6.7 6.2 7.1 7.4 7.6 7.8 8.0 8.2 7.9 7.9 7.7 7.3 6.8 6.3 6.3 6.3 6.6 6.3 5.9 6.4 6.4 6.1 6.6 6.5 6.7 7.1 7.0 7.0 6.9 6.6 6.0 5.5 5.4 5.8 5.8 5.7 5.8 5.8 5.4
5.6 5.6 5.5 5.6 6.0 6.7 7.4 7.9 7.8 7.8 7.8 7.7 7.7 7.7 7.7 7.5 7.1 5.9 5.9 6.1 6.4 6.4 6.1 5.9 6.2 6.3 6.4 6.4 6.8 7.1 7.0 7.2 6.9 6.5 6.1 5.7 5.7 5.7 5.8 6.0 5.9 5.6 5.2
5.8 5.5 5.0 5.6 6.2 6.5 6.9 7.3 7.5 7.7 7.7 7.6 7.5 7.0 6.5 6.4 6.0 6.0 6.3 6.1 6.2 5.7 5.8 5.9 6.1 5.7 6.2 6.4 6.8 7.2 7.1 7.2 6.7 6.2 6.0 5.7 5.6 5.4 6.0 5.6 5.4 5.1 5.3
6.0 5.8 5.6 5.1 5.5 6.3 6.6 6.8 7.1 7.2 7.0 6.8 6.5 6.0 6.0 6.1 6.1 6.1 5.9 6.1 5.8 5.7 6.0 5.9 6.0 6.1 6.0 6.3 6.8 7.1 7.3 7.1 6.5 6.1 5.8 5.8 5.4 5.4 5.3 5.2 5.4 5.1 5.1
6.4 6.1 6.0 6.0 5.3 6.1 6.2 6.6 6.9 6.8 6.9 6.6 6.5 6.5 6.3 6.0 5.8 5.8 5.8 5.9 6.1 5.8 5.8 6.0 5.9 5.7 5.9 6.0 6.6 6.8 7.3 7.1 6.3 6.1 5.8 5.8 5.5 5.5 5.4 5.3 5.2 5.2 5.5
6.1 6.0 6.2 6.3 6.6 6.8 6.7 6.7 6.7 6.7 6.6 6.4 6.2 6.2 6.2 6.2 6.0 5.8 5.8 6.1 6.0 5.8 5.8 5.8 5.8 6.0 6.1 6.2 6.4 6.7 7.4 6.9 6.1 6.0 5.7 5.9 5.7 5.6 5.5 5.4 5.4 5.5 5.4
6.2 6.0 6.3 6.5 6.7 6.9 6.9 7.0 6.6 6.3 6.3 6.3 6.3 6.1 6.1 6.1 6.1 6.0 5.8 5.8 5.8 5.5 6.0 5.6 6.1 6.0 6.0 6.3 6.5 6.7 7.0 6.7 6.0 5.8 6.1 5.7 5.7 5.8 5.6 5.6 5.5 5.3 5.5
5.7 5.9 6.1 6.3 6.3 6.5 6.7 6.8 6.6 6.4 6.2 6.2 6.3 6.2 6.1 6.0 6.2 6.1 6.1 5.8 5.4 5.5 5.7 5.8 5.9 5.9 6.1 5.9 6.2 6.5 6.8 6.5 5.9 5.6 6.2 5.9 5.7 5.7 5.5 5.6 5.7 5.6 5.6
5.2 5.9 6.1 6.1 6.2 6.2 6.5 6.5 6.6 6.6 6.4 6.2 6.1 6.1 6.0 6.0 5.9 6.0 6.0 5.9 5.6 5.1 5.8 5.7 5.9 5.9 5.8 5.8 5.7 5.8 5.9 5.9 5.6 5.6 5.9 6.0 5.6 5.7 5.9 5.6 5.7 5.7 5.7
5.6 5.9 6.2 6.3 6.5 6.5 6.5 6.5 6.5 6.4 6.2 6.2 6.3 6.1 6.0 6.0 5.9 5.8 5.8 5.9 5.9 5.6 5.0 5.4 5.7 5.8 6.0 5.6 5.7 5.6 5.4 5.6 5.5 5.6 5.6 5.6 6.4 5.7 5.8 5.6 5.7 5.7 5.5
6.1 6.2 6.1 6.3 6.5 6.6 6.5 6.5 6.6 6.5 6.4 6.3 6.2 6.2 6.2 6.0 6.0 5.9 6.0 5.9 5.9 5.8 5.5 5.6 5.6 5.6 5.5 5.5 5.4 5.1 5.4 5.4 5.4 5.5 5.6 5.5 5.8 5.9 5.7 5.8 5.8 5.9 5.9
6.1 6.2 6.3 6.4 6.4 6.5 6.6 6.6 6.6 6.6 6.6 6.8 6.7 6.6 6.4 6.4 6.5 6.5 6.4 6.2 6.2 5.9 5.0 5.1 5.3 5.4 5.3 5.2 5.3 5.4 5.4 5.3 5.6 5.5 5.6 5.8 5.7 6.2 6.0 5.9 6.0 5.9 5.9
6.3 6.3 6.4 6.5 6.5 6.4 6.5 6.5 6.5 6.5 6.6 6.6 6.6 6.6 6.6 6.6 6.6 6.6 6.6 6.6 6.5 6.5 5.6 5.4 5.4 5.3 5.3 5.2 5.3 5.2 5.5 5.6 5.6 5.4 5.7 5.9 6.0 6.2 6.2 6.0 6.1 5.9 5.7
Wind_Speed
23 22 19 9 10 11 14 18 18 18 13 11 11 10 12 10 9 9 12 13 14 16 12 8 8 8 9 10 9 3 6 2 3 4 3 2 3 4 4 5 5 8 12
22 20 19 9 9 10 16 19 19 19 17 14 14 9 12 9 8 8 10 12 13 14 11 11 9 11 7 8 9 6 3 2 7 4 4 3 1 2 4 4 4 5 8
23 21 21 18 10 9 13 17 20 21 19 19 12 5 6 5 5 8 10 11 14 13 14 13 11 11 9 9 10 10 10 7 7 8 4 3 4 2 3 6 5 5 4
18 18 20 20 12 12 11 15 18 20 20 20 16 19 16 13 10 12 10 10 14 14 14 14 12 12 9 10 10 8 9 9 9 4 5 2 4 3 2 3 5 5 7
17 20 20 20 13 11 2 8 13 20 20 21 20 16 16 12 6 9 12 11 11 12 13 13 13 12 9 11 12 10 10 9 9 10 8 4 2 3 3 4 6 5 7
14 17 18 16 6 2 3 4 12 17 18 21 20 21 19 14 11 11 10 9 8 9 12 13 12 11 11 11 11 12 13 11 10 9 9 9 7 4 3 2 11 12 7
9 9 10 11 3 8 6 5 8 10 15 17 17 18 16 16 16 15 12 12 9 7 10 12 10 9 10 11 11 11 12 11 10 11 10 9 10 3 8 3 5 5 2
6 7 3 6 11 10 10 6 7 8 8 12 13 12 12 9 9 12 11 10 10 10 12 11 11 11 11 10 10 9 9 11 11 13 11 9 9 8 5 5 8 3 2
12 11 9 10 12 15 14 11 8 9 8 8 5 7 10 12 11 11 10 9 10 9 11 13 13 11 11 11 10 8 10 10 11 11 11 10 8 8 6 6 8 9 9
14 11 9 11 12 14 13 13 9 9 8 8 5 7 6 6 7 9 11 10 9 9 10 10 10 10 10 10 11 9 8 9 8 9 11 11 10 9 9 9 10 10 10
12 9 7 12 13 13 12 11 11 12 11 7 6 5 4 4 5 8 9 10 10 11 11 11 11 10 10 10 10 10 10 12 11 10 11 12 13 9 10 11 11 10 7
14 9 9 14 16 13 12 13 11 12 11 7 7 8 5 3 5 5 8 9 11 11 11 10 10 9 8 9 10 10 8 10 12 12 10 12 10 15 11 10 14 13 10
14 12 16 17 19 16 12 15 14 12 12 11 11 11 10 5 2 4 6 6 8 9 9 10 10 10 8 8 7 7 7 9 10 10 11 11 11 13 13 15 14 13 10
20 14 15 15 20 16 14 15 14 14 13 13 12 11 10 9 5 2 3 6 7 7 8 8 8 9 8 7 6 6 5 6 7 7 7 8 11 12 14 14 16 14 13
18 18 15 14 18 13 14 14 14 14 12 11 12 11 10 9 10 9 4 4 5 7 6 7 5 5 7 6 7 6 6 7 7 7 9 11 13 15 14 11 16 17 13
15 15 17 17 18 15 13 12 13 14 12 13 13 12 12 11 10 9 9 4 5 6 6 6 7 7 4 9 11 8 6 6 6 8 8 10 12 14 17 19 15 15 17
16 17 17 17 16 13 13 13 12 11 12 12 13 13 12 11 11 10 9 9 9 3 6 6 6 6 6 11 11 11 4 5 5 6 5 5 4 5 3 3 9 8 14
17 16 14 14 13 13 13 12 12 11 12 12 12 12 12 11 11 11 10 9 7 7 4 5 5 4 4 10 10 10 5 4 1 2 3 4 1 1 8 6 10 10 9
13 11 11 12 13 15 12 11 12 12 12 12 11 11 11 11 11 11 10 9 8 7 6 5 5 6 5 8 9 8 5 5 4 3 4 1 3 8 6 13 12 11 11
12 12 12 12 12 14 13 12 12 11 12 11 10 10 10 10 10 10 9 8 7 6 6 6 9 12 5 10 2 7 4 5 3 3 4 11 7 10 5 3 13 11 7
13 12 12 11 13 13 12 12 12 13 11 10 9 10 10 9 10 9 7 8 6 5 6 6 8 10 13 8 6 7 5 5 4 3 4 5 15 15 13 7 6 7 11
14 13 10 10 11 11 11 11 11 10 10 9 10 10 10 8 8 9 8 8 7 6 6 6 6 7 8 18 15 14 12 10 7 6 5 7 17 19 19 14 20 19 12
10 10 9 11 11 11 11 11 11 10 10 10 10 10 10 10 9 9 9 7 8 6 6 5 5 6 6 8 18 19 19 16 11 8 15 22 24 24 18 19 17 11 7
11 11 11 11 11 11 11 11 11 10 10 9 9 8 9 10 11 8 8 8 8 7 6 6 5 5 5 6 7 6 9 17 14 12 10 14 15 15 11 10 11 7 7
11 9 9 9 10 11 11 11 11 10 7 7 8 8 7 8 8 11 10 8 11 10 6 6 6 6 7 7 9 7 5 4 10 10 7 7 7 8 8 8 8 7 8
8 8 9 10 10 11 10 11 11 10 9 8 6 6 6 6 6 5 9 23 20 23 22 20 11 9 16 19 21 19 16 14 14 7 8 8 7 7 7 8 9 7 8
Wind_Direction
283 284 275 228 212 213 218 205 194 193 178 177 175 180 190 186 187 189 184 179 181 179 176 175 169 171 176 178 171 139 162 111 146 113 92 85 148 166 172 186 197 185 183
281 275 273 247 227 215 207 213 203 188 185 185 188 188 186 194 180 183 183 183 180 178 176 173 179 182 172 163 169 160 140 124 168 153 145 181 139 216 190 171 186 200 188
276 270 268 265 243 216 204 212 205 195 189 185 177 126 112 107 151 181 190 188 182 179 179 176 178 180 179 184 179 185 175 178 187 184 150 155 213 134 168 196 181 182 198
260 268 263 260 247 247 192 201 203 195 192 180 175 173 177 180 195 193 184 182 181 183 183 179 179 178 180 183 185 184 193 180 188 197 222 233 144 176 173 177 199 191 203
243 249 249 250 241 261 213 213 207 202 187 181 179 181 184 187 162 174 173 177 182 187 189 177 178 179 184 185 180 183 195 196 194 200 194 212 231 230 150 181 187 196 206
255 248 241 241 224 80 29 171 208 202 187 179 179 184 181 169 155 167 176 179 180 184 189 174 179 183 185 180 185 188 197 201 206 200 204 206 203 193 190 155 194 199 197
260 248 240 234 213 140 91 162 179 184 186 180 178 183 180 173 166 167 176 177 176 187 192 174 177 184 185 185 185 190 195 203 207 202 206 208 220 204 213 153 181 188 146
20 16 48 105 104 81 74 79 121 115 163 176 172 168 153 162 162 169 175 181 186 187 178 180 180 182 182 182 183 192 198 199 205 207 210 209 215 207 203 188 167 170 163
39 37 50 69 81 79 68 60 75 95 98 110 121 134 158 162 164 168 173 179 181 179 185 182 179 179 179 181 184 196 198 200 205 212 211 215 212 211 195 187 188 187 185
49 15 38 51 50 59 62 56 44 61 82 98 139 143 140 133 145 159 173 175 173 166 174 173 177 174 177 182 187 196 193 200 211 212 212 215 218 209 202 196 196 209 201
29 1 41 54 52 49 51 52 40 38 37 42 64 82 136 158 163 178 176 177 169 168 169 174 178 183 187 189 197 202 202 207 214 219 223 220 221 222 210 204 196 202 199
22 326 36 62 53 38 32 45 34 33 25 16 43 51 51 121 181 196 189 169 170 171 171 171 172 175 185 183 194 205 205 216 222 223 220 223 217 223 214 200 199 192 196
14 3 35 41 55 30 14 39 30 27 30 31 39 36 24 32 68 158 166 158 165 161 158 158 170 172 177 182 184 198 206 217 225 226 228 231 222 228 223 226 212 201 196
22 19 31 36 52 29 12 28 24 22 25 30 31 30 18 13 354 275 184 164 160 157 158 163 161 165 170 181 181 198 210 230 246 251 257 255 241 239 233 219 210 199 187
27 17 37 41 54 34 21 25 26 23 17 31 31 19 7 19 14 24 348 159 178 161 169 157 160 179 171 179 182 190 206 220 235 242 246 251 249 245 241 233 221 201 186
29 18 28 40 46 30 26 20 24 22 17 25 24 15 13 15 12 13 9 315 192 165 145 175 180 186 177 181 187 185 204 210 229 251 250 251 249 248 240 228 202 196 184
16 18 24 34 35 21 20 21 18 18 21 22 19 12 7 14 10 6 18 7 349 209 177 181 188 203 189 183 195 200 206 210 233 251 255 271 275 245 134 105 171 156 176
22 18 20 28 22 18 22 19 18 19 22 21 17 12 4 6 6 8 8 0 353 343 276 203 181 210 215 184 194 193 203 192 159 259 267 243 155 52 118 81 77 71 51
23 23 14 18 17 16 17 16 20 17 19 17 12 7 2 1 3 2 356 350 344 335 339 305 194 201 221 205 191 171 161 128 89 26 19 168 130 78 135 111 87 77 77
17 15 17 16 19 12 12 19 16 14 17 7 3 2 7 7 1 348 348 343 339 347 1 30 25 19 35 12 239 174 142 129 126 60 40 64 76 87 77 105 131 112 100
12 12 14 13 15 10 7 17 14 12 2 3 3 8 10 6 3 349 347 350 356 22 42 51 40 31 20 359 324 174 152 145 130 87 63 59 79 68 70 77 101 110 119
10 12 7 16 14 12 9 13 15 4 4 8 9 12 11 13 6 7 359 359 4 30 41 42 43 33 23 30 35 64 79 102 111 96 85 84 85 87 85 85 99 102 99
8 1 7 15 14 11 11 12 4 7 10 15 14 10 16 19 15 17 16 15 11 25 32 43 47 43 2 40 50 67 78 83 93 92 96 95 91 88 82 87 86 83 90
4 0 7 15 10 6 6 10 3 8 20 15 15 15 20 25 30 27 34 32 23 22 31 33 38 42 31 23 33 55 69 82 83 82 79 86 83 77 76 68 59 63 77
2 0 2 3 2 5 4 7 6 9 15 22 15 17 22 23 35 45 42 46 45 47 42 40 39 43 47 43 70 51 62 94 106 102 87 72 76 85 82 77 74 75 86
6 9 6 3 358 360 6 4 7 8 18 23 19 18 20 17 22 41 62 57 58 60 60 58 60 63 71 73 74 77 76 77 81 81 88 76 73 78 92 94 88 83 85